GFSSW_250_rhum_024.txt.gz
RH
17 14 12 11 11 11 11 11 11 12 11 12 13 15 14 13 13 12 11 11 10 10 8 8 11 9 7 7 8 8 8 8 8 10 17 18 21 19 17 19 23 42 58 87 85
13 12 12 12 11 11 10 11 11 11 13 11 12 14 14 14 13 13 12 11 11 11 10 10 7 10 8 7 7 8 9 8 9 9 11 15 16 13 12 14 26 26 18 22 56
12 13 15 15 15 13 12 11 11 12 13 13 12 13 15 14 15 13 13 12 11 11 11 10 12 8 8 8 7 8 8 8 9 9 9 9 9 10 17 28 28 29 27 29 37
14 14 14 15 15 16 16 15 13 14 15 15 14 15 17 18 16 15 13 12 12 11 11 12 10 12 10 8 9 10 10 11 13 17 19 23 27 25 23 22 12 7 7 8 8
14 14 15 16 17 17 18 18 17 16 16 17 17 18 19 17 14 14 14 13 12 11 11 11 12 13 12 11 10 9 12 17 20 19 15 12 11 9 8 8 9 8 7 9 24
17 18 18 18 18 19 19 19 19 18 18 18 18 18 16 16 14 13 13 14 16 13 12 12 13 16 15 13 12 12 12 11 11 12 11 11 11 11 10 10 16 14 16 32 46
22 21 21 21 21 20 20 19 19 19 18 17 16 15 15 16 14 13 15 17 17 17 15 15 18 16 15 18 16 11 12 12 13 13 14 14 13 11 10 18 18 18 43 66 50
24 23 22 21 20 19 19 18 18 15 16 16 16 17 16 22 16 15 18 18 18 18 16 15 16 20 19 16 19 18 12 11 13 14 14 14 12 11 15 23 16 24 60 68 63
50 44 44 43 43 41 36 37 33 30 27 30 27 22 23 24 19 18 18 19 21 17 18 19 17 16 20 18 19 23 14 12 14 15 17 17 15 14 28 30 21 20 60 66 58
47 48 44 48 47 45 40 33 31 31 26 26 32 30 30 35 34 25 24 22 21 22 21 19 18 17 16 21 21 14 20 21 19 18 17 18 18 16 36 43 26 25 33 46 49
30 33 34 36 36 37 36 35 31 28 34 30 32 27 31 30 37 32 28 25 23 20 18 15 16 16 15 15 16 18 18 35 32 24 22 19 18 17 22 43 38 39 39 34 38
33 42 44 38 39 36 32 29 30 28 37 37 34 36 35 32 29 32 31 30 20 13 11 10 10 12 13 11 11 13 16 34 50 36 29 25 21 19 17 37 44 32 49 39 38
29 28 32 30 31 51 57 37 34 32 31 42 43 43 40 39 30 31 30 27 20 14 11 10 8 9 9 10 10 10 11 18 49 49 34 32 27 24 19 24 56 38 29 36 35
23 25 24 23 23 20 19 26 35 25 28 29 29 34 30 26 30 27 23 23 21 15 10 9 9 10 10 10 9 9 9 10 15 39 41 37 35 28 24 19 33 32 12 24 34
14 15 15 15 16 16 17 18 17 24 23 20 29 29 36 27 22 19 19 16 15 13 12 16 9 9 11 9 10 11 10 10 11 18 26 31 40 40 31 25 19 23 12 11 12
13 13 13 12 11 12 12 13 17 20 19 20 25 33 30 31 28 24 20 17 15 14 13 12 12 13 19 16 17 12 11 9 9 11 20 54 54 48 44 30 23 18 14 9 9
14 14 14 14 14 13 12 12 11 14 17 16 19 25 25 26 27 26 22 19 18 19 18 16 26 26 19 20 18 16 13 10 9 10 16 35 48 56 50 34 29 18 15 10 9
12 11 10 11 10 10 12 12 11 11 11 13 16 17 23 23 21 22 22 19 17 16 17 15 16 26 25 23 20 15 14 11 13 11 11 11 30 39 48 30 30 23 16 12 10
10 8 7 7 8 8 8 9 10 8 10 13 13 15 16 23 21 19 17 18 19 20 23 26 20 31 24 21 16 16 18 21 15 12 13 12 13 24 38 32 35 34 24 16 11
11 10 11 10 10 9 9 9 7 8 10 12 13 13 14 16 24 21 18 15 17 19 17 20 21 31 32 23 18 20 20 15 21 25 30 23 13 16 33 40 42 32 34 22 12
6 5 4 5 6 10 11 10 10 10 11 10 11 11 13 16 19 26 21 18 16 15 17 23 37 32 33 21 24 23 18 21 28 37 35 29 18 11 12 35 47 42 41 30 16
2 2 2 2 2 2 4 11 12 11 11 13 12 12 12 14 16 20 23 21 18 17 22 24 32 30 40 37 26 23 21 22 23 37 41 27 20 12 11 16 41 46 39 36 26
2 2 2 1 1 2 2 2 6 11 13 13 14 13 12 14 15 16 19 25 22 21 18 22 24 31 35 31 23 19 21 23 26 37 39 36 31 36 31 13 23 43 48 44 39
2 2 2 2 1 1 1 2 2 4 10 14 14 16 18 14 15 14 17 20 24 23 22 21 37 31 33 49 44 25 21 25 25 32 49 64 39 35 29 24 13 20 42 48 46
3 2 2 2 2 1 2 2 2 2 3 8 14 16 18 19 15 14 14 17 20 24 24 21 24 33 33 33 30 25 22 24 26 34 39 66 41 30 27 29 26 16 16 34 50
2 2 2 2 2 1 1 2 2 2 2 3 7 13 18 19 18 15 13 16 15 20 24 23 20 29 28 33 34 31 24 24 29 32 40 59 53 34 25 28 29 30 16 14 25
3 2 2 2 2 1 1 1 2 2 2 2 3 6 13 18 20 18 16 13 15 16 22 27 23 21 32 36 36 31 26 27 28 30 38 61 72 54 30 24 22 24 20 15 14

GFSSW_250_rhum_027.txt.gz
RH
20 20 19 17 14 11 11 11 11 11 11 11 11 11 11 12 11 13 12 11 11 10 10 9 11 9 6 6 9 11 13 14 14 15 14 16 18 22 24 26 23 18 13 19 27
20 18 16 14 11 11 11 10 10 10 11 11 11 11 12 11 12 11 12 12 10 10 10 8 10 8 9 8 8 9 10 65 19 9 8 9 23 13 16 17 17 11 17 25 28
17 15 14 12 11 12 13 12 11 10 10 10 11 12 10 12 11 10 12 13 12 11 10 10 9 9 9 8 8 8 10 100 36 10 8 9 11 11 10 10 9 14 26 26 19
15 13 13 12 12 12 12 12 12 12 11 10 11 12 12 11 11 12 11 12 13 11 11 11 11 10 10 10 9 8 14 96 23 10 8 11 9 9 10 11 14 16 9 8 8
13 13 13 13 13 12 12 12 14 15 15 14 12 14 14 12 12 14 12 12 13 12 12 12 11 12 12 12 12 11 10 11 10 10 12 13 15 27 13 10 8 8 10 14 13
15 16 16 15 15 14 13 14 15 16 17 18 16 16 17 18 14 16 16 13 12 12 12 13 12 13 14 14 13 15 14 12 12 14 14 12 11 10 11 12 11 11 16 14 18
18 18 18 18 18 18 18 17 17 18 18 18 18 18 20 20 18 15 17 14 13 12 12 13 14 15 12 13 15 16 16 16 15 14 13 12 13 14 13 11 10 12 12 22 39
22 21 22 21 21 21 20 19 19 17 17 17 18 18 18 18 18 16 15 15 14 13 14 14 16 15 14 14 11 12 17 20 18 16 17 16 14 14 13 11 11 15 12 34 49
36 30 30 35 35 32 27 22 21 20 18 17 16 15 15 15 16 16 15 18 18 17 16 16 16 16 15 14 13 14 14 14 26 23 18 18 18 16 15 16 17 18 11 33 51
42 39 35 36 40 41 43 43 41 35 30 31 26 20 22 17 21 19 16 20 19 18 19 20 17 15 17 17 17 14 10 14 23 28 27 22 19 18 17 18 23 25 14 23 42
28 29 30 34 34 31 32 30 35 36 40 37 39 34 31 28 24 26 25 27 31 27 24 20 21 20 17 18 16 15 14 14 19 24 36 31 21 20 18 19 22 29 20 20 38
31 30 27 24 25 27 28 27 25 26 31 34 36 36 33 31 26 23 28 24 32 34 27 24 24 21 20 19 18 18 17 16 20 21 30 39 30 23 21 19 21 32 33 18 33
22 26 28 28 28 27 26 26 28 29 32 45 34 34 31 29 28 24 33 27 34 30 34 30 24 23 16 12 12 15 15 14 14 16 20 31 39 32 25 21 20 26 46 20 23
17 17 19 20 23 24 22 22 24 25 23 40 49 38 38 33 27 26 32 44 33 43 36 34 30 21 13 11 10 10 13 13 11 11 14 17 41 38 32 26 25 21 33 23 24
13 14 13 13 13 14 15 16 20 23 21 20 34 47 54 40 38 29 32 37 41 34 30 22 27 24 14 10 9 8 9 9 9 9 10 11 24 46 41 33 30 23 20 22 19
15 14 13 12 11 11 10 10 11 15 17 22 24 33 32 40 42 33 28 28 32 31 30 27 24 23 19 13 9 9 10 10 10 10 10 11 27 53 48 42 34 31 20 20 9
14 12 10 9 8 9 10 11 10 9 11 15 14 18 22 23 26 28 26 22 29 28 24 22 22 18 15 13 12 9 10 10 9 11 12 12 13 58 56 49 42 39 26 18 10
9 8 8 8 7 6 6 7 7 9 11 7 10 12 14 25 26 29 29 22 21 32 30 22 18 16 14 14 14 11 10 10 14 12 13 10 9 19 45 52 47 43 32 20 12
10 10 9 8 8 8 8 8 11 8 5 6 8 11 13 20 24 20 26 28 27 31 29 24 21 18 14 14 12 12 11 19 12 14 14 14 11 10 19 39 40 46 35 29 16
10 8 7 6 5 6 8 9 10 10 8 7 7 10 13 13 16 20 20 27 28 28 30 27 24 22 19 16 13 11 18 10 12 20 26 19 15 11 10 26 27 42 37 39 24
4 3 3 2 2 2 2 2 5 8 10 11 11 8 10 11 11 13 14 17 23 25 25 26 26 23 20 15 14 17 12 15 20 25 32 25 20 12 9 12 32 48 49 43 36
4 3 2 2 1 2 2 2 2 2 5 10 12 13 11 8 10 13 16 14 14 19 24 23 23 22 20 20 19 16 14 19 25 40 50 44 27 16 10 10 20 43 50 48 42
4 3 2 2 2 1 2 2 2 2 2 7 11 12 14 12 8 13 14 11 15 20 23 20 20 21 21 21 15 12 14 21 24 32 40 39 20 17 12 11 11 32 49 50 47
3 3 3 2 2 2 2 1 2 2 2 2 6 9 13 14 13 10 10 12 16 15 18 22 22 20 22 24 34 20 22 25 24 27 40 47 29 28 21 14 12 16 41 49 49
4 3 3 3 2 2 2 2 2 2 2 2 2 5 11 15 15 12 9 11 16 16 16 22 24 22 26 21 22 18 24 29 28 30 35 57 51 34 28 20 14 13 23 43 48
5 4 4 3 2 2 2 2 2 2 2 2 2 2 7 15 15 14 12 10 14 14 14 20 25 23 22 19 16 14 16 19 25 34 37 58 74 38 30 26 25 17 15 28 42
8 5 4 3 2 2 2 2 1 2 2 2 2 2 3 9 13 14 15 12 13 14 14 16 23 25 22 18 16 14 22 26 27 34 37 48 76 58 30 30 31 30 17 14 25

GFSSW_250_rhum_030.txt.gz
RH
20 19 19 20 19 18 16 13 11 11 11 11 10 10 12 11 11 12 11 11 10 10 10 8 6 8 10 12 16 13 24 60 70 77 35 22 20 18 21 25 23 21 22 21 17
21 21 21 20 17 15 13 12 10 10 10 10 10 10 10 11 11 11 12 11 11 11 10 9 10 10 10 6 7 11 12 22 31 45 21 15 12 12 12 29 29 13 17 15 10
23 22 21 20 17 14 13 12 11 11 10 9 10 10 10 10 10 10 12 11 10 11 11 10 10 9 9 9 9 6 8 15 26 47 100 86 19 8 8 19 12 11 10 9 10
25 25 23 20 17 14 13 12 11 11 11 10 10 10 10 10 10 10 10 11 11 11 11 11 11 11 10 9 8 8 10 96 94 52 94 68 67 70 13 14 10 11 12 9 9
24 22 20 16 13 12 12 12 12 12 12 12 12 11 10 10 10 10 10 10 12 11 11 11 12 12 12 11 10 9 8 10 81 99 91 24 77 44 70 96 15 8 11 11 14
17 15 14 13 13 13 13 13 13 12 11 11 13 15 14 11 11 10 12 10 11 12 12 11 11 12 14 12 11 10 10 10 77 51 9 10 11 9 69 22 11 12 12 12 12
14 14 14 13 13 14 14 14 14 13 13 12 13 15 18 16 16 10 14 12 11 11 12 12 11 13 13 12 11 11 11 12 11 12 13 12 11 11 30 14 11 11 12 11 10
15 15 15 17 16 17 16 16 16 17 16 15 16 18 17 19 19 17 12 16 14 13 12 12 12 12 14 13 13 10 12 13 15 15 15 15 16 14 14 14 13 13 13 15 11
42 39 36 35 32 31 26 23 20 20 19 18 17 17 19 19 20 19 17 16 18 16 15 13 13 13 12 14 14 14 16 11 16 19 21 19 17 15 16 15 15 14 18 17 13
37 35 33 33 35 34 34 29 20 20 18 18 17 17 17 16 17 18 18 17 17 16 16 15 14 13 13 14 18 14 12 13 18 23 24 26 25 21 17 18 17 14 15 22 14
25 24 24 24 23 22 22 27 32 28 25 23 21 22 22 19 17 16 16 17 15 16 18 16 15 16 15 13 13 12 11 12 17 21 22 32 30 28 25 71 100 17 16 22 16
28 26 25 25 22 20 18 19 18 22 26 28 26 29 27 31 23 19 26 24 22 22 20 18 24 17 14 14 16 15 15 13 16 19 22 28 36 34 26 98 94 17 50 20 25
21 21 21 20 22 20 20 18 16 16 16 27 24 27 31 26 31 26 24 35 30 26 23 22 28 20 20 20 21 21 19 16 15 16 17 20 23 28 32 26 22 19 18 17 31
15 15 16 16 16 16 16 16 17 15 14 24 42 23 22 26 24 30 31 36 36 32 30 24 20 21 24 27 24 23 21 20 18 18 18 16 17 25 34 32 28 26 16 100 31
17 15 12 10 10 10 10 12 12 13 13 15 19 37 33 25 46 30 35 24 32 34 26 34 28 22 24 38 28 25 23 21 16 12 15 16 15 18 28 35 34 28 19 83 19
18 14 10 7 7 7 8 8 7 9 10 14 13 20 22 21 25 37 29 38 38 35 28 31 28 20 28 31 31 29 23 15 10 10 10 12 12 12 20 32 38 34 27 20 18
15 12 11 10 10 9 8 7 7 8 12 12 8 12 15 17 21 24 31 32 38 41 37 42 34 37 36 31 30 29 23 13 10 9 11 10 10 11 19 40 42 39 35 23 22
16 14 13 11 10 10 10 8 8 10 12 8 6 7 11 15 19 21 25 31 30 40 44 38 34 35 40 33 22 24 22 17 11 11 10 8 8 8 8 12 31 35 40 30 28
13 10 8 6 5 5 5 6 6 9 12 12 10 9 8 11 13 15 18 27 39 40 53 40 34 30 30 30 28 27 22 18 14 9 8 9 9 7 8 9 14 20 41 39 34
6 5 5 4 3 3 2 2 2 4 7 9 12 9 8 9 12 13 12 19 30 35 40 45 38 32 28 27 24 22 19 15 13 12 11 12 12 11 9 10 15 29 44 43 40
6 4 4 3 3 2 2 2 1 2 2 4 9 8 8 9 11 12 13 14 19 28 33 36 36 32 28 22 27 21 17 12 14 13 17 15 14 12 9 9 12 19 44 48 47
5 4 4 3 3 2 2 2 2 2 2 2 5 9 7 9 12 11 12 12 12 14 16 22 28 32 27 23 27 24 17 14 14 20 31 28 18 14 11 10 10 14 31 55 50
5 5 4 3 3 2 2 2 2 2 2 2 2 5 7 9 13 14 12 11 12 14 14 14 14 21 23 24 19 21 22 18 16 22 31 30 21 18 14 10 11 12 20 48 53
6 6 5 3 3 2 2 2 2 2 2 2 2 2 7 10 12 13 16 11 10 13 14 15 13 15 23 26 25 25 24 22 18 20 28 33 25 25 19 11 14 12 12 31 49
8 8 6 5 4 3 2 2 2 2 2 2 2 2 3 8 10 13 17 14 8 11 13 17 21 16 23 30 28 30 28 26 21 30 31 38 38 34 27 16 17 14 12 15 36
15 13 10 5 5 3 2 2 2 2 2 2 2 2 2 3 7 13 15 13 11 10 13 15 24 22 24 28 27 25 26 26 24 30 36 43 47 31 28 22 20 22 16 12 19
27 18 13 7 5 4 3 2 2 2 2 2 2 2 2 2 3 9 12 13 14 11 14 16 18 20 28 32 28 24 23 21 24 26 32 42 51 50 38 23 21 23 18 14 11

GFSSW_250_rhum_033.txt.gz
RH
26 22 20 19 19 19 19 17 15 12 12 11 10 10 11 11 13 11 11 11 8 7 8 10 12 12 12 15 16 16 57 100 100 100 94 99 99 82 34 19 26 39 33 19 20
30 24 21 20 20 18 18 16 14 12 11 10 10 10 10 11 11 13 12 11 11 11 9 7 7 8 9 10 12 16 26 100 98 100 100 80 85 41 56 30 21 9 9 10 10
35 25 22 21 21 20 18 17 15 12 11 10 10 10 10 9 11 11 13 12 11 11 11 10 10 10 8 7 7 13 35 28 44 73 67 48 35 55 98 55 37 9 12 10 9
36 28 23 22 21 20 19 17 15 12 10 10 10 10 10 10 9 10 11 13 12 11 12 11 10 10 9 9 8 8 7 24 23 20 21 17 23 67 80 58 37 42 27 10 10
28 27 25 24 23 22 20 18 15 13 11 11 10 10 10 9 10 9 10 11 12 11 12 12 11 10 10 10 9 8 8 7 8 13 13 12 14 83 84 76 35 62 9 10 11
25 25 25 24 23 22 20 18 14 12 11 11 10 11 12 10 11 9 10 10 11 12 11 13 11 11 12 9 10 9 8 8 10 11 20 66 61 52 54 35 45 16 10 9 13
21 22 22 21 17 16 15 15 12 12 11 11 10 11 12 10 12 9 9 10 11 11 12 12 12 14 11 10 10 10 11 9 8 8 29 100 10 10 11 12 21 23 9 11 17
15 14 14 14 14 13 13 12 12 12 12 12 11 13 14 10 13 12 8 11 10 11 11 12 12 14 13 10 11 12 11 12 9 10 24 32 12 11 10 10 12 12 12 17 20
31 27 25 22 20 17 15 16 15 14 13 12 12 13 15 14 12 14 16 10 11 12 11 11 13 13 13 12 12 13 13 11 11 13 14 12 12 10 11 11 28 77 12 12 24
34 32 30 29 29 32 30 26 24 21 18 17 15 17 18 18 15 18 16 16 13 12 13 13 13 14 15 14 18 12 12 11 11 12 14 13 13 13 13 12 94 98 90 53 16
36 35 32 27 24 24 26 25 26 26 24 22 20 20 23 20 17 16 18 18 18 16 19 16 10 18 16 14 13 12 12 13 15 14 15 15 17 14 12 11 100 100 95 95 61
25 28 30 31 30 28 23 19 18 20 24 24 23 24 25 23 18 18 16 17 18 19 18 15 18 17 15 14 14 14 14 14 15 18 19 18 16 11 12 14 100 100 100 81 100
17 17 17 16 16 15 17 18 18 16 16 29 19 21 23 18 24 22 16 18 17 18 17 17 22 14 14 15 16 16 16 15 14 18 19 18 14 13 11 13 99 99 100 82 100
20 18 13 12 12 11 10 10 10 10 14 19 23 18 18 17 17 27 24 20 20 20 22 16 18 16 15 15 16 17 20 16 13 14 17 17 17 13 14 13 46 94 100 51 31
25 22 17 15 14 9 8 7 8 8 10 12 12 17 18 16 19 25 22 24 20 28 27 30 26 23 20 25 19 26 20 18 16 14 14 15 17 18 18 16 14 15 21 18 40
23 21 19 16 13 12 10 10 9 7 7 10 9 11 14 15 17 20 16 23 24 25 26 27 24 20 26 26 22 25 20 18 17 16 14 20 19 18 18 18 16 14 16 9 71
22 20 17 15 14 12 11 11 9 9 10 12 9 8 10 13 16 17 18 19 21 22 24 28 27 29 33 32 28 25 20 17 17 20 23 20 20 12 12 15 16 17 18 16 24
18 17 15 12 10 7 7 7 6 8 7 8 9 11 8 8 12 13 14 16 18 20 33 32 29 28 34 32 30 33 31 23 29 36 24 22 18 11 10 10 12 14 14 16 18
15 9 7 5 5 4 4 3 2 2 3 5 8 10 9 10 9 11 11 17 18 21 25 34 37 38 33 39 39 34 26 31 37 39 32 25 14 10 8 10 12 12 12 15 23
9 7 7 5 4 4 3 3 2 1 2 2 4 7 9 8 9 11 12 12 14 16 21 33 46 52 53 42 41 32 35 29 29 32 31 24 15 11 8 9 9 9 9 21 35
8 6 5 4 4 4 3 3 2 2 1 2 2 3 6 6 9 10 12 11 12 14 15 20 22 48 51 40 40 33 27 30 28 27 24 22 19 15 9 8 8 9 8 19 34
9 7 6 7 6 4 3 2 2 2 2 2 2 2 3 6 7 8 10 12 12 13 14 18 18 30 30 47 43 37 35 39 34 25 25 22 19 15 10 9 8 8 9 10 40
10 9 7 8 7 5 3 3 2 2 2 2 1 2 2 4 8 8 10 12 12 12 14 15 15 23 29 31 38 34 31 32 33 26 24 22 18 13 12 11 10 9 10 8 22
11 16 16 11 6 5 4 3 2 2 2 2 1 2 2 3 7 8 8 11 13 12 13 13 14 17 20 27 31 38 36 29 27 26 23 20 16 13 13 12 11 10 10 9 9
16 16 13 12 6 4 4 3 2 2 2 2 2 2 2 2 4 8 9 12 12 14 12 14 16 16 25 26 27 34 38 34 26 26 24 25 17 16 15 15 13 12 12 11 9
23 24 18 14 8 6 4 3 3 2 2 2 2 2 2 2 2 6 10 13 12 14 11 14 16 16 23 32 35 33 26 28 29 29 27 34 22 20 18 16 16 18 16 13 11
36 29 18 12 8 6 4 3 3 2 2 2 2 2 2 2 2 4 8 12 12 12 12 14 14 16 23 34 34 30 30 23 30 32 29 37 27 22 22 16 16 25 16 12 12

GFSSW_250_rhum_036.txt.gz
RH
58 57 51 41 26 22 18 15 14 13 13 13 11 10 10 12 13 12 8 6 6 8 10 12 14 17 18 20 25 26 32 44 59 100 100 100 99 95 100 98 58 77 67 34 10
67 62 59 52 35 25 22 18 15 13 12 12 12 10 10 10 12 14 11 10 8 6 7 9 10 13 16 18 20 45 40 37 96 60 100 100 100 100 100 100 73 70 56 36 17
68 64 62 58 51 31 24 21 18 15 12 11 11 10 10 9 10 11 12 12 11 11 8 7 7 10 12 14 15 19 32 76 94 97 78 94 93 71 100 80 54 59 27 47 15
64 61 58 57 50 43 28 23 20 19 16 13 12 10 10 9 9 10 11 12 12 12 11 10 9 8 7 8 10 12 14 17 77 100 100 100 92 97 71 40 16 53 51 41 10
45 40 37 38 35 35 33 26 23 22 20 18 14 11 9 9 10 9 10 11 11 12 12 12 10 10 10 10 8 7 7 8 13 19 39 50 47 35 21 15 19 61 56 36 9
28 28 28 28 28 26 25 24 23 22 22 21 20 16 12 8 10 9 10 10 10 11 12 13 9 10 11 10 9 8 8 8 8 9 22 21 21 21 14 13 87 86 28 16 9
21 20 20 20 21 21 20 19 20 20 20 19 20 18 13 8 10 10 10 10 10 10 11 11 11 12 11 11 10 9 10 9 7 7 8 9 8 24 20 18 14 11 18 9 8
15 15 14 14 14 13 14 13 14 14 16 15 15 16 14 10 11 9 9 11 10 10 9 10 11 12 13 10 11 13 11 10 9 7 8 10 23 92 41 10 10 13 14 13 13
23 21 20 18 16 15 14 12 11 11 11 12 12 13 14 11 10 12 11 10 11 10 9 9 10 11 12 12 10 14 15 10 11 10 9 8 15 68 44 51 11 40 68 54 50
28 29 27 26 24 21 18 16 14 14 12 11 12 14 14 13 12 11 11 8 11 9 9 10 11 10 12 15 17 13 13 11 11 10 10 12 18 20 12 14 12 62 100 100 88
34 36 35 31 27 27 24 22 21 21 18 14 13 15 18 12 12 12 12 9 8 10 12 11 9 14 16 14 12 10 11 12 11 11 13 9 14 14 18 13 13 70 88 76 71
20 21 23 23 22 23 24 21 21 20 24 17 17 19 22 21 28 19 16 16 11 12 12 10 16 20 14 13 13 12 13 13 12 13 16 14 14 14 13 11 11 53 100 90 95
20 18 16 13 12 12 13 14 16 16 20 16 12 17 21 18 26 30 20 18 18 15 11 11 22 13 9 10 13 14 16 15 14 12 16 12 12 13 14 11 10 51 83 81 100
27 24 20 18 16 13 10 8 8 9 11 14 15 12 13 16 18 23 25 21 22 20 16 14 17 12 12 12 15 16 20 16 14 11 13 13 11 12 14 11 11 80 100 97 85
31 28 26 23 21 16 14 12 11 9 8 7 9 11 12 11 18 22 19 19 16 21 17 18 19 17 17 19 18 20 18 17 15 12 12 13 12 13 13 14 14 16 100 100 100
30 28 25 22 20 15 13 12 11 10 10 10 12 10 10 9 11 17 17 15 19 22 20 19 19 15 18 17 16 19 16 16 14 12 10 13 13 13 15 18 14 14 16 38 35
29 28 24 21 17 14 13 13 12 10 8 8 10 10 11 9 8 11 13 18 19 17 20 20 17 16 15 16 16 17 16 15 13 11 14 19 15 21 21 18 14 14 16 19 18
30 28 24 17 13 9 6 5 5 4 4 4 5 7 8 10 8 8 10 13 17 16 16 20 32 26 17 17 19 19 16 17 18 16 23 25 14 21 20 19 16 16 16 16 18
32 22 13 8 8 6 5 5 4 4 2 2 2 3 6 8 9 9 8 10 12 14 14 15 20 29 28 29 27 32 20 22 19 17 20 16 19 16 16 15 15 17 19 14 17
31 16 10 8 7 6 5 4 3 2 2 2 2 2 2 5 9 8 8 7 9 11 11 14 17 21 26 28 26 33 35 28 23 21 19 20 22 24 16 18 20 21 11 12 15
22 12 11 8 6 6 5 4 3 2 2 2 2 1 2 2 7 8 7 7 7 9 11 13 17 21 24 21 25 25 25 24 24 26 26 25 23 22 12 15 22 18 9 11 25
18 12 10 8 10 5 6 4 3 3 2 2 2 1 2 2 3 8 7 6 7 8 10 12 15 21 23 39 30 26 27 31 32 34 30 26 26 20 15 26 28 13 8 9 14
18 13 8 11 12 8 6 4 3 3 2 2 2 2 2 2 2 4 6 7 6 8 10 12 13 23 25 28 28 30 27 26 30 31 30 30 27 22 23 30 23 16 9 9 10
16 12 15 14 14 12 7 5 4 2 2 2 2 2 2 2 2 2 6 8 7 7 9 10 12 19 20 26 34 28 31 36 29 29 31 28 24 19 28 28 22 18 12 9 10
15 16 17 19 12 9 7 5 4 2 2 2 1 2 2 2 2 2 3 8 8 8 8 11 12 18 18 22 26 32 28 30 32 38 34 35 31 28 26 24 22 16 13 10 9
20 27 28 25 21 20 14 6 3 2 2 2 2 2 2 2 2 2 3 6 8 8 9 13 12 18 22 22 25 36 36 27 31 50 46 40 35 31 26 26 22 16 13 11 10
33 39 38 33 32 26 19 9 5 2 2 2 2 2 2 2 2 2 2 4 8 9 9 15 15 18 22 22 23 35 39 36 43 48 43 39 33 32 28 24 20 16 12 11 10

GFSSW_250_rhum_042.txt.gz
RH
43 52 38 40 47 47 45 52 57 58 47 37 20 13 12 12 12 11 7 10 14 14 15 19 18 21 22 22 22 27 32 32 43 45 45 54 50 44 64 100 99 100 100 100 89
28 39 35 40 44 43 40 44 50 52 53 49 37 21 13 12 12 12 11 9 7 13 14 15 16 17 19 21 22 23 24 32 34 40 34 81 71 100 90 97 100 100 100 100 86
30 35 39 42 41 42 42 41 42 42 59 58 50 38 22 12 12 12 12 12 9 6 8 12 14 15 15 15 19 23 25 19 24 30 30 49 91 100 100 100 100 100 100 98 88
25 31 34 34 38 41 39 40 48 53 56 65 58 50 36 19 16 13 11 12 12 12 8 7 12 14 14 13 16 21 22 24 19 26 30 60 89 69 99 87 77 90 100 98 88
42 41 41 43 45 47 51 49 50 54 49 55 62 53 38 29 28 12 11 11 12 12 13 11 6 8 14 13 13 16 20 22 21 24 32 54 70 92 84 76 89 100 100 100 84
38 41 44 44 42 44 40 36 32 36 41 45 46 43 31 37 37 16 12 11 11 11 12 13 11 10 9 7 9 10 12 19 21 20 21 31 56 73 90 100 100 100 100 100 57
18 20 22 23 22 22 24 27 27 27 29 32 34 33 24 29 28 26 16 12 10 11 11 12 13 14 13 9 9 8 7 8 11 13 16 20 24 37 38 28 94 100 100 78 15
23 20 18 16 15 15 14 15 14 15 18 20 21 18 18 18 22 21 19 14 10 10 10 10 11 13 14 12 12 12 12 10 8 8 10 12 12 11 22 68 81 75 49 24 18
22 22 24 24 24 23 22 20 16 13 12 13 16 18 16 14 13 17 18 17 12 10 9 10 10 11 13 14 16 15 14 11 11 9 8 8 8 8 7 9 16 22 18 18 40
17 18 18 19 18 17 16 16 18 18 20 18 13 13 13 13 13 12 17 17 15 10 10 12 10 10 11 13 18 16 12 8 9 10 8 10 9 7 6 13 35 27 44 24 38
15 14 14 14 14 14 13 12 12 12 12 13 19 21 17 13 10 11 13 10 11 10 12 10 9 11 13 11 10 12 12 10 9 10 9 8 9 8 7 11 23 42 38 33 20
19 19 17 17 17 17 17 16 15 12 9 11 12 14 17 19 18 13 11 11 10 10 9 10 14 16 10 10 11 11 12 13 12 12 11 10 8 9 8 9 14 29 25 13 25
22 21 20 20 18 18 18 18 17 17 15 11 9 9 11 12 14 15 16 12 11 9 8 8 17 14 8 9 10 11 11 12 11 12 12 11 10 10 8 13 16 14 12 12 17
24 22 23 22 24 23 22 23 20 18 17 15 14 12 11 8 9 10 12 16 13 11 10 8 14 13 8 8 10 10 15 11 10 10 12 12 12 10 10 11 10 12 14 16 15
29 30 29 28 29 28 24 21 21 21 15 17 19 16 12 8 7 7 9 11 12 13 12 11 14 12 10 12 9 12 13 11 8 8 11 11 12 12 10 17 12 11 13 36 26
30 38 38 34 36 28 25 22 18 17 18 16 15 15 14 11 9 8 6 8 11 11 12 14 16 14 10 11 8 12 11 10 8 6 7 12 12 14 13 12 9 10 11 18 24
48 46 41 36 30 29 25 20 18 16 15 13 12 10 10 11 11 10 9 7 7 10 10 15 16 19 14 10 10 11 10 8 7 5 10 12 14 20 21 12 10 10 10 11 18
51 40 39 38 38 28 24 22 19 18 15 12 11 9 9 10 10 9 9 8 6 7 8 9 15 23 20 14 11 11 11 8 8 8 13 12 13 33 33 19 11 11 11 11 22
45 44 40 36 28 27 28 24 19 11 8 7 6 5 5 5 7 9 8 8 8 7 7 8 10 18 24 19 13 11 9 9 8 10 13 10 12 30 34 16 11 11 11 12 15
35 35 30 28 31 29 20 12 9 8 7 6 6 5 5 4 4 5 7 7 7 7 6 6 8 16 17 22 19 11 11 9 7 8 10 9 12 26 33 22 18 13 13 12 12
36 33 29 36 27 16 12 13 13 11 9 8 6 4 4 3 4 4 4 5 6 7 6 5 6 10 12 16 24 17 11 11 9 9 12 12 15 25 36 26 18 17 14 12 12
33 37 35 23 16 16 23 22 18 17 12 8 6 4 4 3 2 3 3 3 5 5 4 6 5 8 8 16 24 20 14 14 13 11 10 9 17 21 36 27 20 15 14 14 15
40 30 19 18 22 26 33 35 29 25 17 12 9 5 4 3 2 2 2 2 2 4 5 5 7 8 8 13 17 17 13 16 16 15 14 16 33 24 41 27 25 18 16 16 16
25 19 27 30 42 49 51 39 38 25 16 11 6 4 3 3 2 2 1 2 2 2 4 5 8 9 8 10 12 12 16 16 16 15 16 17 84 27 32 25 22 18 17 17 16
20 34 48 50 52 68 67 61 42 25 13 7 4 3 2 2 2 2 2 1 1 2 2 3 6 10 11 8 8 12 18 17 16 19 20 28 97 40 36 29 25 20 20 18 16
38 53 60 62 59 58 64 56 53 31 13 5 3 2 2 2 2 2 2 1 2 1 1 2 6 9 12 8 9 13 17 19 21 26 24 42 78 33 35 31 31 25 20 20 18
57 66 69 60 54 64 63 63 52 32 9 4 3 2 2 1 1 1 1 1 1 1 1 2 6 9 14 12 12 13 15 21 23 26 26 62 76 40 39 29 26 30 34 36 24

GFSSW_250_rhum_045.txt.gz
RH
26 37 41 42 42 43 39 44 40 46 52 42 23 21 20 16 14 10 9 12 16 18 19 22 24 23 21 22 24 23 28 32 40 44 56 52 65 53 93 64 86 100 100 100 72
16 19 25 33 33 34 38 30 32 36 40 48 38 20 21 23 18 14 10 9 11 15 16 16 19 22 20 21 21 22 24 26 38 45 46 53 48 45 41 59 89 100 100 68 71
19 19 18 18 20 21 24 25 31 37 38 36 44 31 20 25 30 14 15 12 10 10 12 14 15 17 18 17 20 21 22 22 25 35 38 53 46 44 50 87 81 74 54 54 96
17 17 21 22 24 26 28 31 33 32 32 34 33 35 38 31 27 20 16 15 13 10 10 11 12 14 15 16 16 20 21 24 22 25 37 36 35 43 61 55 42 34 39 61 76
29 32 32 28 19 20 23 25 26 24 24 25 27 25 39 52 29 20 21 14 15 12 12 10 7 11 13 14 15 16 16 21 22 27 26 28 29 33 69 84 69 78 100 100 100
22 24 26 27 28 27 27 26 27 28 26 25 22 22 29 37 39 21 26 19 16 13 12 12 12 10 7 8 11 14 15 15 19 22 22 25 26 30 38 64 93 100 91 100 100
19 18 18 19 20 22 24 26 28 32 27 28 24 19 15 22 35 28 26 19 18 16 12 12 11 12 12 10 9 8 11 13 13 14 20 20 20 22 24 31 50 49 52 87 77
27 27 24 21 19 17 16 15 14 16 16 18 18 18 16 18 25 27 24 19 17 19 14 12 12 12 12 14 15 14 11 8 9 11 12 13 19 19 18 19 26 32 42 50 66
18 19 23 24 24 23 23 22 20 18 14 13 12 13 12 13 16 20 21 20 16 18 18 13 13 13 12 12 16 20 18 10 8 7 7 7 9 11 12 13 14 12 18 29 31
15 14 14 16 17 17 16 16 17 19 20 19 18 15 10 9 11 14 16 16 14 12 15 20 16 14 14 12 13 18 13 8 8 8 8 7 7 7 8 8 8 9 14 30 17
17 16 17 17 16 14 12 11 11 13 14 13 13 15 17 16 14 10 11 12 14 11 13 16 21 24 13 11 10 12 15 10 10 9 10 10 9 8 8 8 8 15 52 36 23
19 19 18 16 17 17 16 14 13 13 12 11 10 10 12 12 13 15 15 10 10 12 10 12 22 23 14 14 11 10 12 14 11 10 10 10 9 10 9 8 14 41 57 62 23
24 21 21 20 19 19 18 18 18 18 17 18 16 14 13 10 9 10 11 12 10 9 10 11 20 20 15 15 12 10 10 12 12 10 11 9 11 12 10 9 10 15 23 33 14
32 31 29 26 22 23 24 23 23 20 19 18 17 18 15 14 12 9 8 9 9 11 9 10 14 14 15 14 14 13 11 10 10 10 11 10 12 12 11 10 8 12 18 15 13
36 40 34 32 32 29 26 27 25 19 19 19 17 16 14 13 13 11 10 7 8 8 9 11 14 14 11 15 12 16 14 10 9 9 10 10 11 13 12 14 10 12 13 12 11
49 46 42 37 34 32 31 27 24 23 21 19 19 19 15 12 11 10 10 10 7 7 6 9 17 14 12 12 10 17 11 9 7 8 7 10 12 12 13 14 10 10 11 14 26
43 50 51 46 41 36 34 35 29 30 25 23 20 16 14 12 11 10 9 9 8 8 6 6 11 16 16 12 9 11 12 8 6 6 10 11 12 17 14 12 12 11 10 10 19
60 51 46 41 39 36 31 28 28 24 21 18 15 13 10 9 9 10 9 9 9 7 7 7 8 13 16 18 11 10 10 8 6 7 11 10 11 24 17 12 12 12 11 11 22
54 59 56 42 34 31 30 29 26 23 20 17 14 13 13 12 11 9 8 9 10 9 7 8 8 9 13 16 15 12 9 8 7 7 9 10 12 37 27 13 12 12 12 13 15
32 32 31 30 27 26 26 27 29 29 23 18 13 9 8 7 6 5 6 8 7 7 7 8 9 8 8 12 20 17 14 8 6 7 7 8 10 35 28 20 12 12 13 14 13
31 34 33 33 33 33 32 27 21 16 15 14 13 9 8 8 6 5 5 5 5 6 6 8 8 9 6 8 17 20 11 8 6 8 9 9 11 34 43 29 21 12 14 13 13
40 37 34 31 27 23 22 24 27 27 25 21 18 17 14 10 5 4 3 3 4 4 5 6 8 9 7 6 12 15 13 8 7 8 9 8 9 21 57 30 24 17 13 12 12
32 29 24 22 28 35 39 40 39 36 30 26 21 16 15 12 7 4 3 3 3 3 3 5 5 7 8 6 7 11 13 9 9 9 9 8 10 21 35 49 24 14 14 13 13
22 26 28 38 45 48 46 41 36 34 28 20 15 12 11 8 4 4 2 2 2 2 2 3 4 6 8 7 6 7 8 7 7 7 9 8 13 17 26 72 48 10 14 14 14
25 37 60 63 58 58 54 48 44 37 31 21 14 8 5 4 3 2 2 2 2 2 2 2 2 4 6 7 5 6 8 8 4 8 8 11 14 24 26 48 30 15 11 11 13
38 55 81 74 60 58 51 44 42 35 26 17 9 4 3 3 2 2 2 2 2 1 2 2 2 3 6 7 5 5 8 8 5 10 10 13 16 43 19 22 25 19 13 13 15
61 71 68 75 68 62 53 46 38 30 21 11 5 3 3 3 2 2 2 1 1 1 1 2 2 2 5 6 5 6 7 6 7 10 15 17 38 64 26 19 18 21 17 17 18

GFSSW_250_rhum_048.txt.gz
RH
15 15 15 26 34 35 37 33 35 34 38 31 26 24 26 26 18 13 10 17 19 19 20 24 24 22 25 22 22 20 29 44 38 45 60 90 77 68 84 100 90 86 52 69 73
13 15 14 15 22 30 30 36 35 33 32 33 24 26 23 28 19 20 12 11 15 18 19 20 22 23 23 23 22 23 26 28 34 42 56 66 56 51 60 60 54 48 35 42 68
18 18 16 16 15 14 18 20 26 24 22 23 26 25 25 23 23 16 25 14 11 12 16 18 20 23 22 22 22 22 23 24 27 31 41 48 46 51 50 47 43 42 36 45 33
20 21 20 17 19 16 14 14 15 16 17 16 19 31 30 26 20 19 21 24 19 11 11 14 18 17 18 19 21 22 23 23 25 27 26 32 36 39 38 35 36 42 34 36 68
18 16 18 20 21 16 16 18 19 20 20 20 22 27 34 30 27 21 20 24 26 15 11 10 12 15 16 15 16 19 21 22 22 28 28 26 26 39 36 32 28 31 32 65 100
16 17 16 17 17 15 19 22 22 17 16 17 19 20 24 26 29 26 21 21 28 22 15 12 11 12 12 12 15 15 16 18 16 21 24 24 26 28 29 30 30 33 46 72 72
27 24 20 18 16 17 17 18 19 19 21 19 16 15 17 18 26 28 19 20 26 28 15 15 13 12 12 12 10 11 14 15 16 16 18 20 22 24 25 26 29 28 26 23 33
25 27 26 24 23 21 18 15 14 14 16 17 17 18 20 21 19 24 28 21 20 22 24 18 17 14 12 13 14 12 10 10 13 15 15 14 16 17 20 23 24 22 21 19 22
17 18 20 21 22 23 24 23 22 19 16 13 12 12 12 13 18 24 25 27 19 20 19 23 18 19 14 13 13 18 14 8 8 12 14 15 14 14 14 14 17 19 17 14 17
16 14 14 14 14 14 15 16 18 22 22 22 20 15 11 11 10 12 17 20 25 17 19 22 23 23 16 14 14 14 13 8 7 8 11 12 12 12 12 11 11 12 11 11 10
18 17 16 15 14 14 13 12 12 15 15 15 18 20 18 18 15 10 10 12 14 18 17 22 25 28 16 13 13 14 12 11 12 10 8 7 7 7 7 7 7 8 10 8 13
23 21 20 18 18 16 15 15 14 14 12 12 12 13 13 14 16 16 14 10 10 12 14 17 25 20 17 17 17 14 13 12 11 11 11 10 10 10 8 8 9 9 8 14 24
26 24 20 21 23 21 18 17 17 15 14 14 13 12 12 11 11 12 12 12 13 12 12 14 16 17 17 16 15 15 15 12 9 10 12 12 11 11 10 10 9 8 10 16 15
22 23 23 21 21 21 20 22 20 19 16 16 16 14 14 14 14 12 10 10 10 10 13 16 16 14 17 12 16 16 17 13 10 9 10 10 12 11 10 10 10 9 11 16 14
25 24 21 23 22 22 24 22 23 21 20 20 19 17 17 16 15 14 13 10 8 8 8 11 18 19 12 13 13 16 14 11 10 10 7 10 13 12 12 12 11 9 10 18 11
45 41 36 34 34 32 31 30 27 24 24 23 24 19 19 19 18 17 15 15 12 10 8 7 10 15 21 11 10 13 13 11 9 8 6 9 12 13 13 14 11 10 10 15 10
33 35 31 29 32 34 32 32 39 34 32 29 24 22 22 20 18 19 18 16 15 13 11 8 9 8 12 18 10 10 10 11 8 7 11 10 10 15 15 14 12 10 10 8 10
27 29 30 29 34 32 31 39 41 43 39 35 34 27 23 22 20 18 18 17 15 13 12 12 10 8 6 11 14 10 8 8 8 9 18 9 10 12 16 15 14 12 11 9 11
29 27 25 23 22 24 27 33 40 42 45 41 34 28 28 24 20 17 15 13 13 12 11 11 10 10 10 8 10 15 9 10 7 9 14 7 11 12 13 14 15 13 12 12 13
30 31 34 35 32 27 26 26 27 28 29 27 25 24 21 19 17 17 15 12 10 10 10 10 10 9 9 11 9 9 17 8 5 6 9 9 11 11 11 12 13 15 13 13 14
27 27 26 26 28 29 32 34 35 36 32 31 29 27 23 21 18 15 13 12 10 10 9 8 8 8 9 9 10 8 9 8 5 5 10 14 11 12 12 11 11 14 14 14 14
19 19 19 18 18 21 24 25 26 24 24 22 20 17 14 13 10 9 8 7 8 8 8 7 6 7 8 8 9 9 8 7 6 6 7 11 11 12 22 11 10 10 14 15 13
20 21 22 24 24 25 28 30 35 39 39 36 32 25 20 15 12 12 10 5 5 4 4 5 5 6 6 6 7 8 8 7 6 8 7 8 12 11 24 13 11 10 12 14 13
22 25 28 35 39 47 53 54 54 54 48 44 37 30 23 16 12 10 10 7 4 3 3 3 3 5 6 5 4 6 7 7 4 4 7 8 11 11 32 15 12 11 11 11 12
25 34 43 51 64 61 61 57 50 48 41 33 22 16 12 11 9 9 5 4 3 2 3 2 3 3 5 5 4 6 7 7 4 5 8 8 7 12 27 28 11 14 9 9 10
32 49 64 74 65 59 66 56 47 40 33 16 14 9 7 7 6 4 3 3 2 2 2 2 2 2 3 4 3 5 7 7 6 4 6 9 8 12 33 42 20 10 10 9 9
43 55 63 64 65 67 63 54 47 46 31 12 7 5 4 3 3 3 2 2 2 2 2 2 2 2 3 3 3 3 5 6 6 4 6 8 8 12 25 40 32 13 9 9 9